[[{"header":{"parameterUnit":"m.s-1","parameterCategory":2,"la1":30.2991,"la2":30.254,"lo1":-89.0895,"lo2":-89.0444,"dy":0.0017,"dx":0.0017,"nx":28,"ny":28,"refTime":"2024-06-18T21:00:00:Z","depth":"0","parameterNumber":2,"parameterNumberName":"U-component_of_CURRENTS"},"data":[0,0,0,0,0,0,0,0,0,0,0,0,0,0,0,0,0,0,0,0,0,0,0,0,0,0,0,0,0,0,0,0,0,0,0,0,0,0,0,0,0,0,0,0,0,0,0,0,0,0,0,0,0,0,0,0,0,0,0.2833,0.2834,0,0.2854,0.2854,0.2854,0.2836,0.2836,0.2836,0.2836,0.2752,0.275,0.2748,0,0,0,0,0,0,0,0,0,0,0,0,0,0.2832,0.2831,0.2833,0.2834,0.2835,0.2855,0.2854,0.2854,0.2836,0.2836,0.2836,0.2836,0.2753,0.275,0.2748,0,0,0,0,0,0,0,0,0,0,0,0,0,0.2834,0.2831,0.2833,0.2833,0.2834,0.2855,0.2854,0.2854,0.2836,0.2836,0.2836,0.2836,0.2753,0.275,0.2747,0.2731,0,0,0.2737,0.2736,0,0,0,0,0,0,0,0,0.2834,0.2833,0.2832,0.2833,0.2834,0.2849,0.2824,0.281,0.2836,0.2828,0.2836,0.2836,0.2779,0.2774,0.277,0.2727,0.2723,0.2737,0.2735,0.2734,0.2733,0,0,0,0,0,0,0,0.2833,0.2832,0.2834,0.2833,0.2835,0.2852,0.2851,0.2821,0.2797,0.2829,0.2829,0.2843,0.2778,0.2773,0.2767,0.2722,0.2737,0.2734,0.2732,0.2731,0.2718,0.2719,0,0,0,0,0,0,0.2842,0.2832,0.2834,0.2836,0.2842,0.2853,0.2851,0.2838,0.2799,0.2796,0.2843,0.2842,0.2779,0.2771,0.2764,0.2781,0.2734,0.2731,0.2729,0.2716,0.2718,0.272,0,0,0,0,0,0,0.2841,0.2841,0.2833,0.2842,0.2843,0.2853,0.2839,0.2839,0.2844,0.2813,0.2806,0.285,0.2778,0.2769,0.2758,0.2776,0.2729,0.2726,0.2714,0.2717,0.2719,0.2789,0,0,0,0,0,0,0.284,0.2839,0.2832,0.2841,0.2843,0.2854,0.284,0.284,0.2856,0.2855,0.2816,0.2808,0.2777,0.2764,0.2755,0.2771,0.2724,0.2712,0.2715,0.2718,0.2784,0.2793,0.28,0,0,0,0,0,0.284,0.283,0.2831,0.2832,0.2831,0.2855,0.2857,0.286,0.2857,0.2862,0.2845,0.281,0.2776,0.2762,0.2752,0.2767,0.2711,0.2714,0.2718,0.2781,0.2791,0.28,0,0,0,0,0,0,0.2841,0.2829,0.2829,0.282,0.2843,0.2855,0.286,0.2869,0.2861,0.2856,0.2822,0.2813,0.2814,0.2784,0.277,0.2775,0.2741,0.2742,0.2792,0.2802,0.281,0.2795,0.2721,0,0,0,0,0,0.2836,0.2811,0.2831,0.2826,0.2836,0.2851,0.2861,0.287,0.287,0.2866,0.2846,0.2827,0.2819,0.2806,0.279,0.2783,0.2774,0.2791,0.2799,0.2806,0.279,0.2822,0.2832,0.2731,0.2731,0.2731,0,0,0.283,0.2829,0.2811,0.2824,0.2834,0.285,0.2854,0.2875,0.2887,0.2856,0.2854,0.2851,0.2827,0.2829,0.2826,0.2805,0.2833,0.281,0.2816,0.2796,0.2827,0.2837,0.2845,0.2733,0.2733,0.2733,0,0,0.2825,0.2812,0.2797,0.2818,0.2848,0.2856,0.2868,0.2888,0.2893,0.2902,0.2893,0.2903,0.2876,0.2872,0.2865,0.2905,0.288,0.2908,0.2927,0.296,0.2968,0.2975,0.299,0.2997,0.2907,0.2907,0.2907,0,0.2816,0.2807,0.2805,0.2822,0.2835,0.286,0.2873,0.2886,0.2904,0.2909,0.2906,0.2912,0.2894,0.2908,0.2927,0.2921,0.2932,0.2891,0.297,0.2977,0.2983,0.2995,0.3003,0.2911,0.291,0.291,0.291,0,0.2819,0.2815,0.2817,0.2824,0.2844,0.2859,0.2888,0.2904,0.2914,0.2929,0.2954,0.2952,0.2953,0.2966,0.2952,0.2993,0.2986,0.2983,0.2944,0.2997,0.3007,0.3014,0.2916,0.2915,0.2914,0.2913,0,0,0.2785,0.2801,0.2806,0.2804,0.2844,0.2853,0.2882,0.2907,0.2921,0.2951,0.297,0.2987,0.3001,0.2995,0.3002,0.3029,0.309,0.3025,0.3025,0.3034,0.3159,0.317,0.3178,0.3111,0.3112,0.3113,0.3154,0,0.2784,0.2784,0.2808,0.2815,0.2812,0.2849,0.2869,0.2902,0.2927,0.2953,0.2984,0.3003,0.3011,0.3023,0.3057,0.3079,0.3108,0.3078,0.3108,0.3108,0.3108,0.3186,0.303,0.3055,0.316,0.3161,0.3162,0,0.2781,0.278,0.2773,0.2783,0.2789,0.2803,0.2831,0.2858,0.2914,0.2939,0.2984,0.3012,0.306,0.306,0.313,0.3116,0.3138,0.3156,0.3159,0.3141,0.3131,0.3017,0.3063,0.2937,0.3171,0.3171,0.317,0,0.2732,0.2752,0.2731,0.2741,0.2768,0.2775,0.2793,0.2846,0.2865,0.2934,0.2959,0.3028,0.3059,0.3112,0.3162,0.3153,0.3235,0.3225,0.3253,0.3253,0.3108,0.3094,0.3025,0.3272,0.3272,0.3271,0.3271,0,0.2699,0.2676,0.2703,0.2693,0.2677,0.2728,0.2731,0.2766,0.2832,0.2854,0.2944,0.2982,0.3077,0.3139,0.3176,0.3244,0.3252,0.3265,0.3274,0.3131,0.3119,0.2992,0.2931,0.3273,0.3273,0.3272,0.3272,0,0.2598,0.263,0.26,0.2633,0.2642,0.2622,0.2667,0.2676,0.2762,0.2799,0.2825,0.2954,0.3055,0.3142,0.3231,0.3259,0.321,0.3332,0.3156,0.3145,0.3063,0.3012,0.2896,0.2795,0.3372,0.3373,0.3373,0,0.2509,0.25,0.2527,0.2521,0.2521,0.2523,0.2527,0.2613,0.2635,0.2774,0.2782,0.2922,0.2992,0.3148,0.3244,0.3331,0.3206,0.3226,0.3185,0.3048,0.2997,0.2901,0.2815,0.3015,0.3013,0.3011,0.3009,0,0.236,0.2395,0.239,0.2385,0.2385,0.2375,0.2397,0.2408,0.2524,0.2572,0.2663,0.2743,0.2952,0.3005,0.3162,0.3197,0.3035,0.3192,0.3079,0.2745,0.2599,0.2508,0.2993,0.2992,0.2993,0.2995,0.2996,0.2996,0.2248,0.2217,0.2258,0.2227,0.2234,0.2219,0.2168,0.223,0.2253,0.2296,0.247,0.2519,0.2702,0.2927,0.2988,0.2962,0.2961,0.2832,0.2793,0.2717,0.2579,0.3041,0.3043,0.3045,0.3046,0.3048,0.3049,0,0.2112,0.2115,0.2094,0.2075,0.2021,0.2075,0.2067,0.201,0.1982,0.2081,0.2136,0.2258,0.2345,0.2523,0.2635,0.2545,0.2448,0.243,0.2204,0.215,0.2574,0.2517,0.2367,0.2367,0.2368,0.2368,0.2368,0.2368,0.2057,0.2001,0.1989,0.187,0.1847,0.173,0.1689,0.1651,0.1677,0.167,0.1718,0.1833,0.2041,0.2173,0.2162,0.2141,0.1935,0.1845,0.185,0.2089,0.2121,0.2151,0.2083,0.1845,0.1844,0.1311,0.1306,0.1303]},{"header":{"parameterUnit":"m.s-1","parameterCategory":2,"la1":30.2991,"la2":30.254,"lo1":-89.0895,"lo2":-89.0444,"dy":0.0017,"dx":0.0017,"nx":28,"ny":28,"refTime":"2024-06-18T21:00:00:Z","depth":"0","parameterNumber":3,"parameterNumberName":"V-component_of_CURRENTS"},"data":[0,0,0,0,0,0,0,0,0,0,0,0,0,0,0,0,0,0,0,0,0,0,0,0,0,0,0,0,0,0,0,0,0,0,0,0,0,0,0,0,0,0,0,0,0,0,0,0,0,0,0,0,0,0,0,0,0,0,-0.0236,-0.0237,0,-0.0341,-0.0342,-0.0343,-0.0389,-0.0389,-0.0389,-0.0389,-0.0471,-0.0473,-0.0475,0,0,0,0,0,0,0,0,0,0,0,0,0,-0.0142,-0.0143,-0.0236,-0.0237,-0.0239,-0.0341,-0.0342,-0.0344,-0.0389,-0.0389,-0.0389,-0.0389,-0.047,-0.0473,-0.0475,0,0,0,0,0,0,0,0,0,0,0,0,0,-0.0207,-0.0143,-0.0236,-0.0274,-0.0279,-0.0341,-0.0342,-0.0344,-0.0389,-0.0389,-0.0389,-0.0388,-0.0469,-0.0472,-0.0476,-0.0498,0,0,-0.0486,-0.0487,0,0,0,0,0,0,0,0,-0.0203,-0.021,-0.0267,-0.0272,-0.0277,-0.0353,-0.0339,-0.0395,-0.0389,-0.0346,-0.0389,-0.0388,-0.043,-0.0437,-0.0455,-0.0502,-0.0505,-0.0486,-0.0488,-0.049,-0.0491,0,0,0,0,0,0,0,-0.0198,-0.0206,-0.0276,-0.0269,-0.0275,-0.031,-0.0318,-0.035,-0.0385,-0.0349,-0.0353,-0.0367,-0.0432,-0.0452,-0.0457,-0.0506,-0.0486,-0.0489,-0.0491,-0.0492,-0.0573,-0.0573,0,0,0,0,0,0,-0.0185,-0.0201,-0.0273,-0.0279,-0.0241,-0.0312,-0.0321,-0.0328,-0.0386,-0.0395,-0.0367,-0.0369,-0.0446,-0.0453,-0.046,-0.0481,-0.049,-0.0493,-0.0495,-0.0573,-0.0573,-0.0573,0,0,0,0,0,0,-0.0182,-0.019,-0.0269,-0.0244,-0.0257,-0.0313,-0.032,-0.033,-0.0349,-0.04,-0.0408,-0.0377,-0.0446,-0.0456,-0.0488,-0.0485,-0.0494,-0.0497,-0.0572,-0.0573,-0.0573,-0.0528,0,0,0,0,0,0,-0.0179,-0.0188,-0.0188,-0.0243,-0.0258,-0.0298,-0.0321,-0.0332,-0.0359,-0.0362,-0.0411,-0.0419,-0.0447,-0.0483,-0.0491,-0.0489,-0.05,-0.0572,-0.0573,-0.0573,-0.0529,-0.0527,-0.0524,0,0,0,0,0,-0.0175,-0.0176,-0.0187,-0.0196,-0.0255,-0.0299,-0.0309,-0.0348,-0.0359,-0.0365,-0.04,-0.0417,-0.049,-0.0486,-0.0496,-0.0495,-0.0572,-0.0572,-0.0573,-0.053,-0.0527,-0.0524,0,0,0,0,0,0,-0.0144,-0.0183,-0.0195,-0.021,-0.0247,-0.0306,-0.0318,-0.0345,-0.0379,-0.0379,-0.0423,-0.0434,-0.0459,-0.0485,-0.0479,-0.0519,-0.0532,-0.0535,-0.0497,-0.0494,-0.0492,-0.0467,-0.0503,0,0,0,0,0,-0.0134,-0.0139,-0.0188,-0.0199,-0.0213,-0.0263,-0.0286,-0.0311,-0.0351,-0.0366,-0.0403,-0.0438,-0.0469,-0.0487,-0.0518,-0.0543,-0.0555,-0.0548,-0.0545,-0.0543,-0.053,-0.0555,-0.0553,-0.0574,-0.0574,-0.0574,0,0,-0.0128,-0.0149,-0.0154,-0.0192,-0.0221,-0.0239,-0.0276,-0.0304,-0.0318,-0.0369,-0.0395,-0.0431,-0.0474,-0.05,-0.0513,-0.0521,-0.0543,-0.0543,-0.0541,-0.0529,-0.0555,-0.0553,-0.0551,-0.0574,-0.0574,-0.0574,0,0,-0.0116,-0.0132,-0.0131,-0.0155,-0.0193,-0.0221,-0.0225,-0.0279,-0.0298,-0.0331,-0.0368,-0.0402,-0.0452,-0.0484,-0.0505,-0.0508,-0.0528,-0.0518,-0.0487,-0.0512,-0.051,-0.0509,-0.0513,-0.0513,-0.0518,-0.0518,-0.0518,0,-0.0105,-0.0112,-0.014,-0.0146,-0.0162,-0.0207,-0.0212,-0.0241,-0.0299,-0.031,-0.0328,-0.04,-0.0442,-0.0471,-0.0476,-0.0501,-0.051,-0.0494,-0.0507,-0.0506,-0.0505,-0.0511,-0.0511,-0.0516,-0.0516,-0.0516,-0.0516,0,-0.0096,-0.01,-0.0102,-0.0116,-0.0135,-0.0148,-0.0186,-0.0202,-0.0228,-0.0261,-0.0294,-0.0354,-0.0393,-0.0417,-0.045,-0.0467,-0.0472,-0.0499,-0.051,-0.05,-0.0507,-0.0508,-0.0513,-0.0513,-0.0514,-0.0514,0,0,-0.0073,-0.0088,-0.0089,-0.0083,-0.0118,-0.0129,-0.014,-0.0165,-0.0161,-0.0218,-0.0221,-0.0293,-0.0322,-0.0348,-0.0397,-0.0426,-0.0437,-0.0456,-0.0458,-0.0451,-0.0473,-0.0463,-0.0463,-0.0465,-0.0465,-0.0465,-0.0476,0,-0.0056,-0.0044,-0.0065,-0.0057,-0.0055,-0.0085,-0.0088,-0.0113,-0.0138,-0.0151,-0.0211,-0.0237,-0.0297,-0.0313,-0.0351,-0.0413,-0.0437,-0.043,-0.0491,-0.0493,-0.0478,-0.0463,-0.0409,-0.0413,-0.0477,-0.0477,-0.0477,0,-0.0045,-0.0034,-0.0016,-0.0011,-0.0012,-0.0011,-0.0007,-0.0018,-0.0047,-0.0064,-0.0101,-0.0149,-0.02,-0.0251,-0.0339,-0.033,-0.0392,-0.0443,-0.0446,-0.045,-0.0484,-0.0436,-0.0412,-0.0511,-0.0478,-0.0478,-0.0478,0,-0.0008,-0.0004,0.0021,0.002,0.0018,0.003,0.003,0.0012,0.0019,-0.0006,0.0002,-0.0073,-0.0094,-0.0187,-0.0294,-0.0316,-0.038,-0.0428,-0.0475,-0.0474,-0.0446,-0.0443,-0.0515,-0.0485,-0.0485,-0.0485,-0.0485,0,0.0018,0.0039,0.0047,0.0062,0.01,0.0079,0.0114,0.0106,0.0104,0.0131,0.0054,0.0068,-0.008,-0.0139,-0.0252,-0.0348,-0.0347,-0.0455,-0.0475,-0.0428,-0.0424,-0.0524,-0.0598,-0.0485,-0.0485,-0.0485,-0.0485,0,0.0057,0.006,0.0091,0.0108,0.0119,0.0148,0.0175,0.0202,0.0195,0.0233,0.0231,0.0178,0.0113,-0.0028,-0.0165,-0.0277,-0.0436,-0.0423,-0.0345,-0.0357,-0.0505,-0.0578,-0.0662,-0.0725,-0.0476,-0.0476,-0.0476,0,0.0085,0.0105,0.0135,0.0162,0.0176,0.0215,0.0247,0.0249,0.0283,0.0311,0.0342,0.0295,0.0285,0.0099,-0.0091,-0.0264,-0.0402,-0.0359,-0.0406,-0.0492,-0.0589,-0.0638,-0.069,-0.0348,-0.0346,-0.0345,-0.0345,0,0.0137,0.0143,0.017,0.0224,0.0266,0.0311,0.0359,0.0401,0.042,0.0464,0.0521,0.052,0.0377,0.0238,-0.0004,-0.0141,-0.0418,-0.0345,-0.0458,-0.0507,-0.0541,-0.0617,-0.0356,-0.0336,-0.0337,-0.0337,-0.0338,-0.0338,0.0176,0.0203,0.0231,0.0283,0.0334,0.0398,0.0435,0.0501,0.0573,0.0635,0.0651,0.0669,0.0489,0.0184,-0.0001,-0.0312,-0.0358,-0.0422,-0.0505,-0.0547,-0.0606,-0.0315,-0.031,-0.0311,-0.0311,-0.0312,-0.0312,0,0.0215,0.024,0.0289,0.0343,0.0397,0.0417,0.05,0.0532,0.0624,0.0711,0.0761,0.0701,0.048,0.0198,-0.0186,-0.0423,-0.0531,-0.0569,-0.0631,-0.0681,-0.0429,-0.0421,-0.0411,-0.0411,-0.041,-0.041,-0.041,-0.041,0.0235,0.0277,0.0294,0.0377,0.0421,0.0472,0.0513,0.0581,0.064,0.0719,0.0744,0.0752,0.0575,-0.0017,-0.0497,-0.0632,-0.0816,-0.0817,-0.0965,-0.0792,-0.0785,-0.0778,-0.0788,-0.0854,-0.0854,-0.1156,-0.1159,-0.1162]}],[{"header":{"parameterUnit":"m.s-1","parameterCategory":2,"la1":30.2991,"la2":30.254,"lo1":-89.0895,"lo2":-89.0444,"dy":0.0017,"dx":0.0017,"nx":28,"ny":28,"refTime":"2024-06-18T21:00:00:Z","depth":"2","parameterNumber":2,"parameterNumberName":"U-component_of_CURRENTS"},"data":[0,0,0,0,0,0,0,0,0,0,0,0,0,0,0,0,0,0,0,0,0,0,0,0,0,0,0,0,0,0,0,0,0,0,0,0,0,0,0,0,0,0,0,0,0,0,0,0,0,0,0,0,0,0,0,0,0,0,0.2842,0.2843,0,0.287,0.287,0.287,0.2871,0.2871,0.2871,0.2871,0.279,0.2788,0.2785,0,0,0,0,0,0,0,0,0,0,0,0,0,0.285,0.2849,0.2842,0.2843,0.2843,0.287,0.287,0.287,0.2871,0.2871,0.2871,0.2871,0.279,0.2788,0.2785,0,0,0,0,0,0,0,0,0,0,0,0,0,0.2856,0.2849,0.2842,0.2849,0.2851,0.287,0.287,0.287,0.2871,0.2871,0.2871,0.2871,0.2791,0.2788,0.2785,0.2766,0,0,0.2775,0.2774,0,0,0,0,0,0,0,0,0.2855,0.2855,0.2848,0.2849,0.285,0.287,0.2844,0.2831,0.2871,0.2859,0.2871,0.2871,0.2809,0.2804,0.2806,0.2762,0.2758,0.2775,0.2773,0.2771,0.2771,0,0,0,0,0,0,0,0.2855,0.2854,0.2849,0.2849,0.285,0.2873,0.2873,0.2842,0.2829,0.286,0.2861,0.287,0.2808,0.2809,0.2804,0.2757,0.2775,0.2772,0.277,0.2769,0.2755,0.2757,0,0,0,0,0,0,0.2855,0.2853,0.2849,0.2851,0.2857,0.2873,0.2872,0.2861,0.2832,0.2829,0.287,0.287,0.2815,0.2808,0.2801,0.2819,0.2771,0.2768,0.2767,0.2754,0.2755,0.2757,0,0,0,0,0,0,0.2855,0.2854,0.2848,0.2857,0.2858,0.2873,0.286,0.2862,0.2876,0.2841,0.2836,0.2885,0.2814,0.2805,0.2797,0.2814,0.2767,0.2764,0.2752,0.2754,0.2756,0.2826,0,0,0,0,0,0,0.2855,0.2853,0.2846,0.2856,0.2858,0.287,0.286,0.2862,0.2882,0.2883,0.2851,0.2843,0.2814,0.2802,0.2793,0.2808,0.2762,0.275,0.2753,0.2756,0.2822,0.2831,0.2838,0,0,0,0,0,0.2854,0.2846,0.2845,0.2846,0.2847,0.2871,0.2874,0.2882,0.2883,0.2894,0.2881,0.2845,0.2815,0.28,0.279,0.2804,0.2748,0.2752,0.2755,0.2818,0.2829,0.2838,0,0,0,0,0,0,0.2864,0.2846,0.2845,0.2837,0.2859,0.2873,0.2881,0.2893,0.2892,0.2889,0.2857,0.2849,0.2851,0.2822,0.2807,0.2813,0.2778,0.278,0.283,0.2839,0.2847,0.2832,0.2759,0,0,0,0,0,0.2859,0.2833,0.2849,0.2845,0.2854,0.2871,0.2883,0.2893,0.2897,0.2898,0.288,0.2863,0.2856,0.2844,0.2827,0.2821,0.2812,0.2828,0.2837,0.2843,0.2827,0.2861,0.287,0.2769,0.2769,0.2769,0,0,0.2853,0.2851,0.2831,0.2843,0.2855,0.2872,0.2877,0.29,0.2914,0.2885,0.289,0.2887,0.2863,0.2866,0.2864,0.2843,0.2871,0.2848,0.2854,0.2833,0.2865,0.2875,0.2884,0.2771,0.2771,0.277,0,0,0.285,0.2838,0.2823,0.2844,0.2872,0.2881,0.2893,0.2916,0.2924,0.2935,0.2928,0.2938,0.2913,0.291,0.2903,0.2943,0.2917,0.2946,0.2964,0.2998,0.3007,0.3014,0.3026,0.3034,0.2945,0.2945,0.2945,0,0.2842,0.2834,0.2832,0.285,0.2862,0.2887,0.29,0.2918,0.2937,0.2943,0.2941,0.2948,0.2931,0.2946,0.2965,0.2959,0.297,0.2928,0.3009,0.3015,0.3021,0.3032,0.304,0.2949,0.2948,0.2948,0.2948,0,0.2847,0.2844,0.2848,0.2857,0.2876,0.2893,0.292,0.2939,0.295,0.2966,0.299,0.2989,0.2991,0.3003,0.2989,0.3031,0.3023,0.3021,0.2982,0.3036,0.3044,0.305,0.2954,0.2953,0.2952,0.2951,0,0,0.2812,0.2832,0.2838,0.2836,0.2879,0.2887,0.2919,0.2943,0.2958,0.2989,0.3008,0.3025,0.3038,0.3032,0.3039,0.3066,0.3127,0.3062,0.3063,0.307,0.3197,0.3206,0.3213,0.315,0.3151,0.3152,0.3189,0,0.2812,0.2816,0.2841,0.2851,0.2848,0.2886,0.2908,0.294,0.2965,0.2992,0.3021,0.304,0.3048,0.3059,0.3094,0.3116,0.3146,0.3116,0.3145,0.3145,0.3144,0.3222,0.2884,0.2891,0.3195,0.3196,0.3197,0,0.2812,0.2812,0.2807,0.2818,0.2824,0.284,0.2867,0.2895,0.2951,0.2976,0.302,0.3048,0.3096,0.3097,0.3166,0.3153,0.3175,0.3193,0.3195,0.3176,0.3167,0.2885,0.2891,0.3207,0.3206,0.3206,0.3205,0,0.2761,0.2785,0.2765,0.2775,0.2803,0.281,0.2828,0.2882,0.2902,0.297,0.2994,0.3064,0.3094,0.3147,0.3197,0.3189,0.3269,0.3261,0.3287,0.3287,0.2987,0.296,0.3308,0.3308,0.3308,0.3308,0.3307,0,0.2731,0.2708,0.2736,0.2726,0.2709,0.2761,0.2764,0.28,0.2866,0.2889,0.2978,0.3017,0.3112,0.3173,0.321,0.3277,0.3286,0.3298,0.3307,0.3006,0.2981,0.3236,0.3227,0.3309,0.3309,0.3308,0.3308,0,0.263,0.2662,0.2633,0.2666,0.2674,0.2655,0.2701,0.271,0.2796,0.2833,0.2859,0.2988,0.3088,0.3174,0.3263,0.329,0.3348,0.3362,0.3003,0.2972,0.3334,0.3328,0.3398,0.3399,0.34,0.3401,0.3401,0,0.2541,0.2532,0.2559,0.2553,0.2555,0.2556,0.256,0.2646,0.2669,0.2808,0.2816,0.2955,0.3018,0.3171,0.3202,0.3271,0.3375,0.3063,0.3,0.3347,0.3348,0.3341,0.3335,0.2615,0.2609,0.2604,0.26,0,0.2392,0.2427,0.2422,0.2418,0.2418,0.2409,0.2431,0.2443,0.2559,0.2606,0.2697,0.2769,0.2912,0.286,0.2992,0.2994,0.3032,0.2975,0.3401,0.2683,0.2622,0.262,0.2636,0.2557,0.2561,0.2564,0.2567,0.2568,0.228,0.2249,0.229,0.226,0.2267,0.2253,0.2203,0.228,0.2304,0.237,0.2505,0.2541,0.2608,0.2657,0.2611,0.2608,0.2837,0.2746,0.2753,0.2768,0.2709,0.2657,0.2585,0.2589,0.2593,0.2596,0.2599,0,0.215,0.2147,0.2127,0.2109,0.2068,0.2109,0.2101,0.2081,0.2075,0.219,0.2243,0.2117,0.2079,0.2188,0.2079,0.2141,0.2031,0.2108,0.1908,0.1954,0.1994,0.1889,0.1551,0.1548,0.1545,0.1543,0,0,0.2095,0.2044,0.2032,0.1926,0.1897,0.1821,0.1782,0.1796,0.1859,0.1881,0.1881,0.2003,0.211,0.18,0.1763,0.1641,0.1782,0.1577,0.241,0.2217,0.2253,0.2352,0.2244,0,0,0,0,0]},{"header":{"parameterUnit":"m.s-1","parameterCategory":2,"la1":30.2991,"la2":30.254,"lo1":-89.0895,"lo2":-89.0444,"dy":0.0017,"dx":0.0017,"nx":28,"ny":28,"refTime":"2024-06-18T21:00:00:Z","depth":"2","parameterNumber":3,"parameterNumberName":"V-component_of_CURRENTS"},"data":[0,0,0,0,0,0,0,0,0,0,0,0,0,0,0,0,0,0,0,0,0,0,0,0,0,0,0,0,0,0,0,0,0,0,0,0,0,0,0,0,0,0,0,0,0,0,0,0,0,0,0,0,0,0,0,0,0,0,-0.0239,-0.024,0,-0.0341,-0.0342,-0.0344,-0.0391,-0.0391,-0.0391,-0.0391,-0.0476,-0.0478,-0.0481,0,0,0,0,0,0,0,0,0,0,0,0,0,-0.0148,-0.0149,-0.0239,-0.024,-0.0242,-0.0341,-0.0343,-0.0344,-0.0391,-0.0391,-0.0391,-0.0391,-0.0476,-0.0478,-0.0481,0,0,0,0,0,0,0,0,0,0,0,0,0,-0.0212,-0.0149,-0.0239,-0.0278,-0.0282,-0.0341,-0.0343,-0.0344,-0.0391,-0.0391,-0.0391,-0.0391,-0.0475,-0.0478,-0.0481,-0.0502,0,0,-0.0492,-0.0493,0,0,0,0,0,0,0,0,-0.0208,-0.0215,-0.0271,-0.0275,-0.0281,-0.0354,-0.0342,-0.0396,-0.0391,-0.0349,-0.0391,-0.0391,-0.0434,-0.0441,-0.0459,-0.0506,-0.051,-0.0492,-0.0494,-0.0495,-0.0496,0,0,0,0,0,0,0,-0.0203,-0.0211,-0.0278,-0.0272,-0.0278,-0.0312,-0.0321,-0.0353,-0.0389,-0.0353,-0.0356,-0.0369,-0.0437,-0.0456,-0.0462,-0.0511,-0.0492,-0.0495,-0.0497,-0.0498,-0.0579,-0.0579,0,0,0,0,0,0,-0.0189,-0.0206,-0.0275,-0.0282,-0.0245,-0.0314,-0.0323,-0.033,-0.039,-0.0399,-0.0369,-0.0371,-0.045,-0.0458,-0.0465,-0.0487,-0.0495,-0.0499,-0.0501,-0.0579,-0.0579,-0.0579,0,0,0,0,0,0,-0.0187,-0.0194,-0.0271,-0.0248,-0.026,-0.0315,-0.0322,-0.0332,-0.0352,-0.0403,-0.0412,-0.038,-0.045,-0.046,-0.0493,-0.049,-0.05,-0.0503,-0.0579,-0.0579,-0.0579,-0.0534,0,0,0,0,0,0,-0.0184,-0.0192,-0.0192,-0.0246,-0.0261,-0.0299,-0.0323,-0.0334,-0.036,-0.0364,-0.0414,-0.0422,-0.0451,-0.0488,-0.0497,-0.0495,-0.0506,-0.0579,-0.0579,-0.0579,-0.0536,-0.0533,-0.0531,0,0,0,0,0,-0.018,-0.0181,-0.0191,-0.02,-0.0258,-0.0299,-0.0309,-0.0348,-0.0361,-0.0367,-0.0403,-0.0421,-0.0495,-0.0491,-0.0501,-0.0501,-0.0579,-0.0579,-0.0579,-0.0537,-0.0533,-0.0531,0,0,0,0,0,0,-0.015,-0.0188,-0.02,-0.0214,-0.0249,-0.0307,-0.0319,-0.0346,-0.038,-0.0381,-0.0426,-0.0437,-0.0464,-0.049,-0.0484,-0.0525,-0.0539,-0.0541,-0.0503,-0.05,-0.0498,-0.0473,-0.0509,0,0,0,0,0,-0.014,-0.0145,-0.0192,-0.0203,-0.0216,-0.0265,-0.0287,-0.0312,-0.0352,-0.0368,-0.0406,-0.0442,-0.0474,-0.0492,-0.0523,-0.0548,-0.0561,-0.0554,-0.0551,-0.0549,-0.0536,-0.0561,-0.0559,-0.058,-0.058,-0.058,0,0,-0.0134,-0.0154,-0.0159,-0.0196,-0.0224,-0.024,-0.0278,-0.0305,-0.0318,-0.0371,-0.0397,-0.0435,-0.0478,-0.0505,-0.0519,-0.0526,-0.0549,-0.0549,-0.0547,-0.0535,-0.0561,-0.0559,-0.0557,-0.058,-0.058,-0.058,0,0,-0.0122,-0.0137,-0.0136,-0.0159,-0.0195,-0.0222,-0.0227,-0.0279,-0.0299,-0.0332,-0.0371,-0.0405,-0.0457,-0.0488,-0.051,-0.0512,-0.0533,-0.0524,-0.0493,-0.0517,-0.0516,-0.0514,-0.0518,-0.0517,-0.0524,-0.0523,-0.0523,0,-0.011,-0.0116,-0.0144,-0.015,-0.0164,-0.0209,-0.0213,-0.0241,-0.0299,-0.0311,-0.033,-0.0404,-0.0446,-0.0475,-0.048,-0.0505,-0.0515,-0.05,-0.0513,-0.0512,-0.0511,-0.0515,-0.0515,-0.0521,-0.0522,-0.0522,-0.0522,0,-0.0099,-0.0103,-0.0105,-0.0118,-0.0137,-0.0149,-0.0186,-0.0201,-0.0229,-0.0262,-0.0296,-0.0356,-0.0396,-0.0421,-0.0454,-0.0471,-0.0477,-0.0504,-0.0516,-0.0506,-0.0511,-0.0512,-0.0518,-0.0519,-0.052,-0.052,0,0,-0.0077,-0.0091,-0.0091,-0.0086,-0.0119,-0.013,-0.014,-0.0165,-0.0162,-0.0219,-0.0224,-0.0295,-0.0326,-0.0352,-0.04,-0.0429,-0.044,-0.046,-0.0463,-0.0455,-0.0476,-0.0468,-0.0468,-0.047,-0.047,-0.047,-0.0479,0,-0.0059,-0.0047,-0.0066,-0.0057,-0.0055,-0.0085,-0.0088,-0.0113,-0.0139,-0.0153,-0.0213,-0.024,-0.0299,-0.0316,-0.0354,-0.0417,-0.0441,-0.0434,-0.0495,-0.0496,-0.0483,-0.0468,-0.0446,-0.0451,-0.0479,-0.048,-0.048,0,-0.0048,-0.0037,-0.0018,-0.0012,-0.0013,-0.0011,-0.0009,-0.0019,-0.0049,-0.0067,-0.0104,-0.0153,-0.0202,-0.0254,-0.0342,-0.0333,-0.0396,-0.0447,-0.0449,-0.0454,-0.0489,-0.0469,-0.0451,-0.0481,-0.0481,-0.0481,-0.048,0,-0.0012,-0.0007,0.0019,0.0017,0.0017,0.0028,0.0028,0.0009,0.0016,-0.001,-0.0002,-0.0076,-0.0097,-0.019,-0.0297,-0.0319,-0.0383,-0.043,-0.0478,-0.0477,-0.0476,-0.0475,-0.0486,-0.0486,-0.0486,-0.0486,-0.0486,0,0.0013,0.0034,0.0044,0.0059,0.0097,0.0076,0.011,0.0102,0.01,0.0127,0.005,0.0065,-0.0083,-0.0142,-0.0255,-0.0351,-0.035,-0.0458,-0.0478,-0.0459,-0.0457,-0.0502,-0.0504,-0.0487,-0.0487,-0.0486,-0.0486,0,0.0052,0.0055,0.0086,0.0104,0.0115,0.0144,0.0171,0.0197,0.019,0.0228,0.0226,0.0173,0.0108,-0.0032,-0.0169,-0.028,-0.0388,-0.0425,-0.038,-0.0396,-0.0477,-0.0477,-0.0479,-0.0479,-0.0479,-0.0479,-0.0479,0,0.008,0.0099,0.013,0.0157,0.0172,0.021,0.0242,0.0244,0.0278,0.0306,0.0337,0.029,0.0274,0.0088,-0.0114,-0.0291,-0.0338,-0.0396,-0.0447,-0.0456,-0.0476,-0.0476,-0.0476,-0.0426,-0.0426,-0.0425,-0.0425,0,0.0131,0.0137,0.0164,0.0218,0.026,0.0305,0.0353,0.0395,0.0414,0.0452,0.0509,0.0502,0.0347,0.0172,-0.0075,-0.02,-0.037,-0.0392,-0.041,-0.043,-0.0407,-0.0426,-0.0428,-0.0421,-0.0421,-0.0422,-0.0422,-0.0422,0.017,0.0196,0.0225,0.0277,0.0328,0.0392,0.0428,0.0471,0.0534,0.0556,0.0597,0.0555,0.0411,0.0071,-0.0089,-0.03,-0.032,-0.0421,-0.0422,-0.0424,-0.0415,-0.0393,-0.0401,-0.0402,-0.0402,-0.0402,-0.0402,0,0.0205,0.0234,0.0283,0.0336,0.038,0.041,0.0492,0.0494,0.0549,0.0572,0.0585,0.045,0.0293,0.0113,-0.019,-0.0347,-0.0368,-0.0396,-0.0394,-0.0397,-0.04,-0.0391,-0.037,-0.037,-0.037,-0.037,0,0,0.0224,0.0262,0.0279,0.0354,0.0402,0.0435,0.0475,0.0488,0.0486,0.0487,0.0455,0.043,0.0284,0.0077,-0.0098,-0.0252,-0.0301,-0.028,-0.0293,-0.0274,-0.0276,-0.0402,-0.0388,0,0,0,0,0]}],[{"header":{"parameterUnit":"m.s-1","parameterCategory":2,"la1":30.2991,"la2":30.254,"lo1":-89.0895,"lo2":-89.0444,"dy":0.0017,"dx":0.0017,"nx":28,"ny":28,"refTime":"2024-06-18T21:00:00:Z","depth":"4","parameterNumber":2,"parameterNumberName":"U-component_of_CURRENTS"},"data":[0,0,0,0,0,0,0,0,0,0,0,0,0,0,0,0,0,0,0,0,0,0,0,0,0,0,0,0,0,0,0,0,0,0,0,0,0,0,0,0,0,0,0,0,0,0,0,0,0,0,0,0,0,0,0,0,0,0,0.1804,0.1804,0,0.1796,0.1796,0.1796,0.1826,0.1827,0.1828,0.1829,0.1886,0.1887,0.1888,0,0,0,0,0,0,0,0,0,0,0,0,0,0.1792,0.1792,0.1804,0.1804,0.1804,0.1796,0.1796,0.1796,0.1826,0.1827,0.1829,0.183,0.1886,0.1887,0.1888,0,0,0,0,0,0,0,0,0,0,0,0,0,0.1791,0.1792,0.1804,0.1819,0.1821,0.1796,0.1796,0.1796,0.1826,0.1828,0.1829,0.183,0.1886,0.1887,0.1888,0.1862,0,0,0.189,0.1891,0,0,0,0,0,0,0,0,0.1791,0.1791,0.1817,0.1818,0.182,0.1815,0.1813,0.1822,0.1826,0.1823,0.1829,0.1831,0.1868,0.1871,0.1863,0.1865,0.1867,0.189,0.1891,0.1891,0.1891,0,0,0,0,0,0,0,0.1791,0.1791,0.18,0.1817,0.1819,0.1808,0.181,0.1814,0.1837,0.1823,0.1825,0.1826,0.187,0.1862,0.1865,0.1868,0.189,0.1891,0.1892,0.1892,0.1969,0.197,0,0,0,0,0,0,0.1796,0.1791,0.18,0.18,0.181,0.1808,0.181,0.1814,0.1836,0.184,0.1825,0.1828,0.186,0.1864,0.1867,0.1947,0.1891,0.1892,0.1892,0.1967,0.1969,0.1971,0,0,0,0,0,0,0.1795,0.1796,0.18,0.1796,0.1796,0.1807,0.1811,0.1813,0.1845,0.1837,0.1843,0.186,0.1861,0.1866,0.1906,0.1946,0.1892,0.1893,0.1965,0.1968,0.197,0.2038,0,0,0,0,0,0,0.1795,0.1796,0.182,0.1797,0.1797,0.181,0.181,0.1812,0.1841,0.1846,0.1868,0.1872,0.1863,0.1905,0.1907,0.1946,0.1894,0.1963,0.1966,0.1969,0.2033,0.2042,0.2049,0,0,0,0,0,0.1795,0.1809,0.1821,0.1823,0.1823,0.1811,0.181,0.1821,0.1842,0.1856,0.1879,0.1873,0.1925,0.1907,0.1909,0.1949,0.1962,0.1966,0.1969,0.203,0.204,0.2049,0,0,0,0,0,0,0.1805,0.1813,0.1826,0.1841,0.1841,0.1817,0.1837,0.1843,0.1868,0.1891,0.1887,0.1893,0.1942,0.1935,0.1915,0.198,0.1945,0.1949,0.1991,0.2,0.2008,0.2003,0.1895,0,0,0,0,0,0.182,0.1848,0.1837,0.1856,0.1861,0.1859,0.1865,0.1871,0.188,0.1894,0.1908,0.193,0.1949,0.1969,0.1977,0.2011,0.201,0.204,0.2048,0.2055,0.2053,0.208,0.209,0.1982,0.1982,0.1982,0,0,0.1831,0.184,0.1857,0.1863,0.1869,0.1873,0.1868,0.1887,0.1903,0.1896,0.1943,0.1958,0.1963,0.2001,0.2024,0.2008,0.209,0.2059,0.2065,0.2059,0.2085,0.2095,0.2105,0.1984,0.1984,0.1984,0,0,0.1845,0.1875,0.1896,0.19,0.1916,0.1911,0.1927,0.1929,0.1951,0.1985,0.199,0.2029,0.2057,0.2065,0.2073,0.2129,0.2128,0.2146,0.2187,0.2214,0.2223,0.2231,0.2263,0.2273,0.2154,0.2154,0.2154,0,0.1865,0.1876,0.1898,0.1907,0.1916,0.1935,0.1943,0.196,0.1978,0.2001,0.2017,0.2071,0.2082,0.212,0.2147,0.2147,0.2166,0.215,0.2225,0.2232,0.2239,0.2269,0.2279,0.2158,0.2157,0.2157,0.2156,0,0.1866,0.1894,0.1906,0.1932,0.1946,0.1958,0.1976,0.2011,0.205,0.2062,0.2124,0.2141,0.2173,0.2192,0.2191,0.2249,0.225,0.2228,0.2199,0.2254,0.2283,0.2292,0.2163,0.2161,0.216,0.2159,0,0,0.1847,0.1902,0.1905,0.1927,0.1961,0.1964,0.2013,0.2042,0.2081,0.2127,0.2169,0.222,0.2244,0.2254,0.2265,0.2297,0.2374,0.2297,0.2296,0.2326,0.2452,0.2283,0.2277,0.2375,0.2376,0.2377,0.246,0,0.1841,0.1872,0.1897,0.1929,0.1943,0.1985,0.2022,0.2064,0.2112,0.2161,0.2206,0.2253,0.2264,0.2297,0.2333,0.2359,0.2399,0.2354,0.2396,0.2397,0.2237,0.2281,0.2382,0.2467,0.2469,0.2471,0.2472,0,0.1807,0.1839,0.1875,0.1935,0.1946,0.1978,0.2045,0.2082,0.2157,0.2199,0.2261,0.2291,0.2359,0.2353,0.2439,0.2417,0.2446,0.2462,0.2465,0.2284,0.2243,0.2396,0.2488,0.2487,0.2485,0.2484,0.2483,0,0.1754,0.1812,0.1848,0.1865,0.1938,0.198,0.2029,0.2103,0.2138,0.2233,0.2271,0.2346,0.2398,0.2445,0.2496,0.2482,0.2576,0.2551,0.2427,0.2417,0.2516,0.2506,0.2606,0.2606,0.2606,0.2606,0.2606,0,0.1705,0.1736,0.1839,0.1854,0.1905,0.1971,0.203,0.2092,0.2171,0.2206,0.2297,0.2323,0.2428,0.2486,0.2518,0.25,0.26,0.2434,0.242,0.2545,0.2538,0.2523,0.2513,0.2609,0.2608,0.2608,0.2607,0,0.1633,0.1699,0.1746,0.1847,0.1881,0.1924,0.2022,0.2058,0.2155,0.2205,0.2238,0.2337,0.2401,0.2482,0.2562,0.2509,0.2517,0.2489,0.2638,0.2631,0.2338,0.233,0.2342,0.2337,0.2332,0.2328,0.2325,0,0.1596,0.1618,0.1731,0.1765,0.182,0.1895,0.1939,0.2041,0.2072,0.2183,0.2191,0.2288,0.234,0.2323,0.2419,0.2459,0.2435,0.2436,0.2359,0.2322,0.2309,0.2308,0.2307,0.2318,0.2316,0.2315,0.2314,0,0.1529,0.159,0.1636,0.1708,0.1769,0.181,0.1887,0.1886,0.1992,0.2089,0.2083,0.21,0.2162,0.2208,0.2262,0.2285,0.2425,0.2387,0.2396,0.2323,0.2293,0.2284,0.2288,0.2298,0.23,0.2302,0.2303,0,0.1491,0.151,0.1586,0.1632,0.1703,0.1714,0.1756,0.1782,0.1814,0.1928,0.1921,0.2023,0.2127,0.2118,0.2164,0.2172,0.2134,0.2074,0.2098,0.2117,0.2002,0.1928,0.1807,0,0,0,0,0,0.1445,0.1458,0.15,0.1543,0.1608,0.1643,0.1714,0.1754,0.1844,0.179,0.1843,0.188,0.1904,0.196,0.1924,0.2081,0.2164,0.2032,0.2112,0.2209,0.2228,0.2112,0,0,0,0,0,0,0.1416,0.1461,0.147,0.1461,0.1471,0.152,0.1558,0.1617,0.1585,0.1682,0.1705,0.1779,0.1839,0.1911,0.1893,0.1913,0.1928,0.21,0.2095,0.2199,0.2216,0.2231,0.2118,0,0,0,0,0]},{"header":{"parameterUnit":"m.s-1","parameterCategory":2,"la1":30.2991,"la2":30.254,"lo1":-89.0895,"lo2":-89.0444,"dy":0.0017,"dx":0.0017,"nx":28,"ny":28,"refTime":"2024-06-18T21:00:00:Z","depth":"4","parameterNumber":3,"parameterNumberName":"V-component_of_CURRENTS"},"data":[0,0,0,0,0,0,0,0,0,0,0,0,0,0,0,0,0,0,0,0,0,0,0,0,0,0,0,0,0,0,0,0,0,0,0,0,0,0,0,0,0,0,0,0,0,0,0,0,0,0,0,0,0,0,0,0,0,0,-0.0103,-0.0104,0,-0.0151,-0.0151,-0.0152,-0.0181,-0.0182,-0.0182,-0.0182,-0.0228,-0.0229,-0.023,0,0,0,0,0,0,0,0,0,0,0,0,0,-0.0057,-0.0057,-0.0103,-0.0104,-0.0104,-0.0151,-0.0151,-0.0152,-0.0181,-0.0182,-0.0182,-0.0182,-0.0227,-0.0228,-0.023,0,0,0,0,0,0,0,0,0,0,0,0,0,-0.0087,-0.0057,-0.0103,-0.0125,-0.0128,-0.0151,-0.0151,-0.0152,-0.0181,-0.0182,-0.0182,-0.0182,-0.0227,-0.0228,-0.023,-0.0233,0,0,-0.0234,-0.0235,0,0,0,0,0,0,0,0,-0.0085,-0.0089,-0.0121,-0.0124,-0.0127,-0.0161,-0.0152,-0.0179,-0.0181,-0.016,-0.0182,-0.0182,-0.0205,-0.0209,-0.0216,-0.0235,-0.0237,-0.0235,-0.0235,-0.0236,-0.0237,0,0,0,0,0,0,0,-0.0083,-0.0087,-0.0121,-0.0122,-0.0125,-0.0139,-0.0144,-0.0157,-0.018,-0.0162,-0.0165,-0.0171,-0.0207,-0.0214,-0.0217,-0.0238,-0.0235,-0.0236,-0.0237,-0.0237,-0.0266,-0.0266,0,0,0,0,0,0,-0.0077,-0.0085,-0.012,-0.0123,-0.0107,-0.014,-0.0145,-0.0149,-0.018,-0.0185,-0.017,-0.0172,-0.0212,-0.0215,-0.0219,-0.0218,-0.0236,-0.0238,-0.0238,-0.0266,-0.0266,-0.0266,0,0,0,0,0,0,-0.0076,-0.008,-0.0118,-0.0106,-0.0112,-0.014,-0.0145,-0.015,-0.016,-0.0186,-0.0191,-0.0175,-0.0212,-0.0217,-0.0231,-0.022,-0.0238,-0.024,-0.0266,-0.0266,-0.0266,-0.022,0,0,0,0,0,0,-0.0074,-0.0079,-0.0079,-0.0105,-0.0112,-0.0126,-0.0145,-0.0151,-0.0163,-0.0166,-0.0192,-0.0197,-0.0213,-0.0229,-0.0233,-0.0223,-0.0241,-0.0266,-0.0266,-0.0266,-0.0222,-0.0219,-0.0216,0,0,0,0,0,-0.0072,-0.0071,-0.0079,-0.0083,-0.0111,-0.0125,-0.013,-0.0151,-0.0163,-0.0162,-0.0184,-0.0196,-0.023,-0.023,-0.0235,-0.0225,-0.0267,-0.0266,-0.0266,-0.0223,-0.0219,-0.0216,0,0,0,0,0,0,-0.0051,-0.0075,-0.0084,-0.0089,-0.0103,-0.0131,-0.0134,-0.0149,-0.0166,-0.017,-0.0195,-0.0201,-0.021,-0.0225,-0.0225,-0.0233,-0.025,-0.025,-0.0216,-0.0212,-0.0209,-0.0197,-0.0242,0,0,0,0,0,-0.0046,-0.0051,-0.0073,-0.0077,-0.0083,-0.0108,-0.0117,-0.0131,-0.015,-0.0158,-0.0178,-0.0198,-0.0212,-0.0218,-0.0235,-0.0238,-0.0257,-0.0235,-0.0232,-0.0229,-0.0223,-0.024,-0.0238,-0.0265,-0.0265,-0.0265,0,0,-0.004,-0.0052,-0.0056,-0.0073,-0.0086,-0.0087,-0.0114,-0.0124,-0.0123,-0.016,-0.0166,-0.0189,-0.0212,-0.0216,-0.0221,-0.0227,-0.0233,-0.0229,-0.0226,-0.0222,-0.024,-0.0237,-0.0235,-0.0264,-0.0264,-0.0264,0,0,-0.0026,-0.0039,-0.0036,-0.0044,-0.006,-0.0074,-0.0075,-0.01,-0.0108,-0.0118,-0.0144,-0.016,-0.0182,-0.0194,-0.0203,-0.0192,-0.0218,-0.0198,-0.0169,-0.0185,-0.0183,-0.0181,-0.0208,-0.0209,-0.0194,-0.0194,-0.0194,0,-0.0017,-0.0016,-0.0037,-0.0032,-0.0034,-0.0064,-0.0056,-0.0067,-0.0093,-0.0096,-0.0113,-0.0147,-0.0168,-0.017,-0.0169,-0.0183,-0.0202,-0.018,-0.018,-0.0179,-0.0178,-0.0206,-0.0207,-0.0191,-0.0192,-0.0192,-0.0192,0,0.0003,0.0004,0.0006,0.0004,0.0001,0.0002,-0.0014,-0.0019,-0.0036,-0.0051,-0.0062,-0.0096,-0.0114,-0.0124,-0.0144,-0.0144,-0.0164,-0.0175,-0.0187,-0.0172,-0.0203,-0.0205,-0.0188,-0.0189,-0.019,-0.019,0,0,0.0025,0.002,0.0024,0.0031,0.0021,0.0022,0.0028,0.0025,0.0032,0.0003,0.0008,-0.0024,-0.0049,-0.0061,-0.009,-0.0106,-0.0122,-0.0135,-0.0137,-0.0156,-0.0167,-0.0168,-0.0171,-0.0133,-0.0133,-0.0133,-0.0193,0,0.0049,0.0066,0.0059,0.0081,0.0087,0.0073,0.0083,0.0078,0.0065,0.0062,0.0028,0.0017,-0.0022,-0.0033,-0.0054,-0.0104,-0.0125,-0.0105,-0.0183,-0.0186,-0.0183,-0.0173,-0.0133,-0.0195,-0.0196,-0.0196,-0.0197,0,0.0075,0.0083,0.0106,0.0119,0.0122,0.0133,0.0147,0.0152,0.0142,0.013,0.0112,0.008,0.005,0.0015,-0.0058,-0.0045,-0.0101,-0.0143,-0.0146,-0.0162,-0.019,-0.0213,-0.0202,-0.0201,-0.0201,-0.02,-0.02,0,0.0101,0.0119,0.0139,0.0143,0.0152,0.0167,0.0174,0.0173,0.0185,0.0173,0.0175,0.0131,0.011,0.0041,-0.0051,-0.0056,-0.0135,-0.0153,-0.0207,-0.0209,-0.021,-0.0212,-0.0202,-0.0201,-0.0201,-0.0201,-0.0201,0,0.0125,0.0142,0.0155,0.0166,0.0197,0.0197,0.0228,0.0227,0.0237,0.0253,0.0212,0.0211,0.0116,0.0058,-0.0032,-0.0125,-0.0122,-0.0199,-0.0219,-0.0192,-0.019,-0.0213,-0.0213,-0.0203,-0.0203,-0.0202,-0.0202,0,0.0137,0.0147,0.0171,0.0194,0.0206,0.0227,0.026,0.0281,0.0287,0.0308,0.0306,0.0271,0.0198,0.0096,-0.0019,-0.0093,-0.0189,-0.0225,-0.0191,-0.0209,-0.0259,-0.0256,-0.0288,-0.0288,-0.0288,-0.0289,-0.0289,0,0.014,0.0155,0.0189,0.021,0.022,0.0254,0.0278,0.0299,0.0322,0.0342,0.0353,0.0306,0.0263,0.0108,-0.0004,-0.0167,-0.0193,-0.0253,-0.0253,-0.0248,-0.0265,-0.0262,-0.0259,-0.029,-0.029,-0.029,-0.029,0,0.0147,0.016,0.018,0.0218,0.0251,0.0286,0.0323,0.0349,0.0375,0.0387,0.0389,0.0318,0.0243,0.012,-0.0005,-0.0124,-0.0218,-0.0257,-0.0257,-0.0258,-0.0251,-0.0267,-0.0264,-0.0291,-0.0291,-0.0291,-0.0291,0,0.0153,0.0164,0.0192,0.0222,0.0263,0.03,0.0325,0.0358,0.0384,0.041,0.041,0.0337,0.0298,0.0142,0.0027,-0.0087,-0.012,-0.0173,-0.0178,-0.0178,-0.0129,-0.0104,-0.011,0,0,0,0,0,0.0153,0.0163,0.0193,0.0226,0.0266,0.0282,0.0345,0.0371,0.0407,0.0411,0.0414,0.0344,0.0201,0.0149,0.0036,0.0004,-0.0153,-0.0135,-0.022,-0.0298,-0.0296,-0.0257,0,0,0,0,0,0,0.0158,0.018,0.0186,0.0219,0.0236,0.0278,0.0314,0.0345,0.0353,0.038,0.0314,0.0292,0.0159,0.0257,0.0023,-0.0008,-0.0082,-0.0195,-0.0198,-0.0299,-0.0297,-0.0296,-0.0256,0,0,0,0,0]}]]